When you browse on this site, cookies collect data to enhance your experience and personalize the content and advertising you see.
Visit our Privacy Policy to learn more. By continuing to use the site, you agree to this use of cookies and data.

Hourly Weather Manama

Today, 15 July, Wednesday

Time Temperature Precipitation Wind Pressure Humidity
00:00 +38°C° 0 mm 3 mps 748 mmHg 52%
01:00 +40°C° 0 mm 4 mps 747 mmHg 51%
02:00 +40°C° 0 mm 4 mps 747 mmHg 49%
03:00 +40°C° 0 mm 4 mps 746 mmHg 48%
04:00 +40°C° 0 mm 4 mps 747 mmHg 48%
05:00 +40°C° 0 mm 4 mps 747 mmHg 49%
06:00 +40°C° 0 mm 4 mps 748 mmHg 49%
07:00 +40°C° 0 mm 5 mps 748 mmHg 49%
08:00 +40°C° 0 mm 5 mps 748 mmHg 50%
09:00 +40°C° 0 mm 5 mps 749 mmHg 50%
10:00 +40°C° 0 mm 6 mps 748 mmHg 49%
11:00 +40°C° 0 mm 7 mps 748 mmHg 49%
12:00 +41°C° 0 mm 8 mps 748 mmHg 48%
13:00 +40°C° 0 mm 8 mps 748 mmHg 49%
14:00 +40°C° 0 mm 8 mps 747 mmHg 50%
15:00 +40°C° 0 mm 8 mps 747 mmHg 50%
16:00 +40°C° 0 mm 7 mps 747 mmHg 52%
17:00 +40°C° 0 mm 6 mps 747 mmHg 54%
18:00 +40°C° 0 mm 6 mps 747 mmHg 55%
19:00 +39°C° 0 mm 5 mps 747 mmHg 56%
20:00 +39°C° 0 mm 5 mps 747 mmHg 57%
21:00 +38°C° 0 mm 4 mps 747 mmHg 58%
22:00 +38°C° 0 mm 3 mps 747 mmHg 60%
23:00 +38°C° 0 mm 2 mps 746 mmHg 61%

Tomorrow, 16 July, Thursday

Time Temperature Precipitation Wind Pressure Humidity
00:00 +38°C° 0 mm 2 mps 746 mmHg 62%
01:00 +38°C° 0 mm 2 mps 746 mmHg 61%
02:00 +38°C° 0 mm 3 mps 746 mmHg 59%
03:00 +38°C° 0 mm 4 mps 745 mmHg 57%
04:00 +38°C° 0 mm 4 mps 746 mmHg 58%
05:00 +38°C° 0 mm 3 mps 746 mmHg 60%
06:00 +37°C° 0 mm 3 mps 746 mmHg 61%
07:00 +38°C° 0 mm 3 mps 747 mmHg 61%
08:00 +38°C° 0 mm 4 mps 747 mmHg 61%
09:00 +38°C° 0 mm 4 mps 747 mmHg 62%
10:00 +38°C° 0 mm 4 mps 747 mmHg 61%
11:00 +38°C° 0 mm 4 mps 747 mmHg 60%
12:00 +38°C° 0 mm 4 mps 747 mmHg 60%
13:00 +38°C° 0 mm 4 mps 747 mmHg 60%
14:00 +39°C° 0 mm 5 mps 746 mmHg 60%
15:00 +39°C° 0 mm 5 mps 746 mmHg 60%
16:00 +39°C° 0 mm 5 mps 746 mmHg 61%
17:00 +39°C° 0 mm 5 mps 746 mmHg 62%
18:00 +37°C° 0 mm 5 mps 746 mmHg 63%
19:00 +37°C° 0 mm 4 mps 746 mmHg 62%
20:00 +37°C° 0 mm 4 mps 746 mmHg 62%
21:00 +37°C° 0 mm 4 mps 746 mmHg 61%
22:00 +37°C° 0 mm 3 mps 746 mmHg 61%
23:00 +37°C° 0 mm 3 mps 746 mmHg 61%

Day after tomorrow, 17 July, Friday

Time Temperature Precipitation Wind Pressure Humidity
00:00 +37°C° 0 mm 2 mps 746 mmHg 60%
01:00 +37°C° 0 mm 2 mps 746 mmHg 63%
02:00 +36°C° 0 mm 1 mps 746 mmHg 66%
03:00 +33°C° 0 mm 0 mps 746 mmHg 69%
04:00 +34°C° 0 mm 0 mps 746 mmHg 68%
05:00 +34°C° 0 mm 0 mps 747 mmHg 67%
06:00 +34°C° 0 mm 0 mps 747 mmHg 65%
07:00 +36°C° 0 mm 1 mps 747 mmHg 61%
08:00 +37°C° 0 mm 1 mps 747 mmHg 57%
09:00 +38°C° 0 mm 2 mps 748 mmHg 53%
10:00 +39°C° 0 mm 2 mps 747 mmHg 53%
11:00 +39°C° 0 mm 2 mps 747 mmHg 53%
12:00 +39°C° 0 mm 2 mps 747 mmHg 52%
13:00 +39°C° 0 mm 3 mps 747 mmHg 52%
14:00 +40°C° 0 mm 4 mps 747 mmHg 52%
15:00 +40°C° 0 mm 5 mps 746 mmHg 51%
16:00 +40°C° 0 mm 5 mps 746 mmHg 50%
17:00 +40°C° 0 mm 5 mps 746 mmHg 50%
18:00 +40°C° 0 mm 5 mps 747 mmHg 49%
19:00 +39°C° 0 mm 5 mps 747 mmHg 52%
20:00 +39°C° 0 mm 5 mps 747 mmHg 54%
21:00 +37°C° 0 mm 5 mps 747 mmHg 57%
22:00 +38°C° 0 mm 4 mps 747 mmHg 55%
23:00 +38°C° 0 mm 4 mps 747 mmHg 52%

18 July, Saturday

Time Temperature Precipitation Wind Pressure Humidity
00:00 +38°C° 0 mm 3 mps 746 mmHg 50%
01:00 +38°C° 0 mm 3 mps 746 mmHg 54%
02:00 +37°C° 0 mm 2 mps 746 mmHg 57%
03:00 +36°C° 0 mm 1 mps 746 mmHg 61%
04:00 +37°C° 0 mm 2 mps 746 mmHg 58%
05:00 +37°C° 0 mm 2 mps 747 mmHg 55%
06:00 +37°C° 0 mm 3 mps 747 mmHg 52%
07:00 +38°C° 0 mm 3 mps 747 mmHg 51%
08:00 +38°C° 0 mm 3 mps 748 mmHg 51%
09:00 +38°C° 0 mm 3 mps 748 mmHg 50%
10:00 +39°C° 0 mm 3 mps 748 mmHg 50%
11:00 +39°C° 0 mm 2 mps 748 mmHg 50%
12:00 +40°C° 0 mm 2 mps 748 mmHg 49%
13:00 +40°C° 0 mm 3 mps 747 mmHg 49%
14:00 +40°C° 0 mm 4 mps 747 mmHg 49%
15:00 +40°C° 0 mm 5 mps 747 mmHg 49%
16:00 +40°C° 0 mm 5 mps 747 mmHg 48%
17:00 +40°C° 0 mm 5 mps 747 mmHg 46%
18:00 +40°C° 0 mm 5 mps 747 mmHg 45%
19:00 +40°C° 0 mm 4 mps 747 mmHg 45%
20:00 +40°C° 0 mm 4 mps 747 mmHg 45%
21:00 +39°C° 0 mm 3 mps 747 mmHg 46%
22:00 +40°C° 0 mm 4 mps 747 mmHg 47%
23:00 +38°C° 0 mm 4 mps 747 mmHg 49%

19 July, Sunday

Time Temperature Precipitation Wind Pressure Humidity
00:00 +38°C° 0 mm 4 mps 747 mmHg 50%
01:00 +38°C° 0 mm 4 mps 747 mmHg 54%
02:00 +37°C° 0 mm 3 mps 747 mmHg 57%
03:00 +37°C° 0 mm 2 mps 746 mmHg 60%
04:00 +37°C° 0 mm 2 mps 747 mmHg 59%
05:00 +37°C° 0 mm 2 mps 747 mmHg 59%
06:00 +36°C° 0 mm 1 mps 748 mmHg 58%
07:00 +38°C° 0 mm 2 mps 748 mmHg 56%
08:00 +38°C° 0 mm 3 mps 748 mmHg 55%
09:00 +38°C° 0 mm 4 mps 749 mmHg 53%
10:00 +38°C° 0 mm 3 mps 748 mmHg 53%
11:00 +39°C° 0 mm 3 mps 748 mmHg 54%
12:00 +39°C° 0 mm 2 mps 748 mmHg 54%
13:00 +39°C° 0 mm 2 mps 748 mmHg 53%
14:00 +39°C° 0 mm 2 mps 747 mmHg 53%
15:00 +39°C° 0 mm 2 mps 747 mmHg 53%
16:00 +39°C° 0 mm 2 mps 746 mmHg 54%
17:00 +39°C° 0 mm 1 mps 746 mmHg 55%
18:00 +39°C° 0 mm 1 mps 746 mmHg 56%
19:00 +39°C° 0 mm 1 mps 746 mmHg 56%
20:00 +37°C° 0 mm 1 mps 746 mmHg 55%
21:00 +37°C° 0 mm 1 mps 747 mmHg 55%
22:00 +37°C° 0 mm 1 mps 746 mmHg 56%
23:00 +38°C° 0 mm 2 mps 746 mmHg 57%

20 July, Monday

Time Temperature Precipitation Wind Pressure Humidity
00:00 +37°C° 0 mm 2 mps 746 mmHg 59%
01:00 +37°C° 0 mm 2 mps 745 mmHg 58%
02:00 +36°C° 0 mm 1 mps 745 mmHg 58%
03:00 +36°C° 0 mm 1 mps 745 mmHg 58%
04:00 +36°C° 0 mm 1 mps 745 mmHg 59%
05:00 +36°C° 0 mm 1 mps 746 mmHg 60%
06:00 +36°C° 0 mm 1 mps 746 mmHg 60%
07:00 +37°C° 0 mm 1 mps 746 mmHg 59%
08:00 +37°C° 0 mm 1 mps 746 mmHg 58%
09:00 +37°C° 0 mm 1 mps 746 mmHg 57%
10:00 +39°C° 0 mm 1 mps 746 mmHg 55%
11:00 +39°C° 0 mm 1 mps 746 mmHg 53%
12:00 +39°C° 0 mm 2 mps 745 mmHg 51%
13:00 +39°C° 0 mm 1 mps 745 mmHg 53%
14:00 +39°C° 0 mm 1 mps 745 mmHg 55%
15:00 +39°C° 0 mm 1 mps 744 mmHg 57%
16:00 +39°C° 0 mm 1 mps 744 mmHg 56%
17:00 +39°C° 0 mm 1 mps 744 mmHg 55%
18:00 +39°C° 0 mm 1 mps 744 mmHg 54%
19:00 +39°C° 0 mm 3 mps 744 mmHg 55%
20:00 +39°C° 0 mm 5 mps 744 mmHg 57%
21:00 +39°C° 0 mm 6 mps 744 mmHg 58%
22:00 +37°C° 0 mm 5 mps 744 mmHg 60%
23:00 +37°C° 0 mm 4 mps 744 mmHg 63%
Show more